Wind_Speed
24 23 24 24 25 25 25 25 26 26 26 27 27 26 26 26 26 26 26 26 27 27 28 28 28 28 28 28 27 28 29 28 28 28 29 29 29 28 29 29 29 28 28
23 23 23 24 25 25 25 25 26 27 27 28 27 26 26 26 27 27 26 26 28 29 29 28 29 29 30 30 29 29 29 29 29 29 28 29 29 29 29 30 30 30 29
23 24 24 24 26 26 26 27 27 28 29 28 28 27 27 27 27 27 27 27 28 29 29 29 30 30 30 31 31 30 30 30 29 29 29 29 28 29 30 30 30 31 30
25 25 25 25 26 27 27 28 28 28 29 29 29 28 28 28 28 28 28 29 30 31 31 31 31 30 31 31 30 31 31 30 29 29 29 30 30 30 30 29 30 31 30
24 25 25 25 26 26 27 28 28 28 28 29 29 30 29 29 28 28 28 29 30 31 31 31 31 32 31 31 31 31 31 30 30 30 29 30 31 31 31 30 30 30 30
23 24 24 25 26 26 27 27 28 28 28 28 28 28 28 28 28 28 29 30 30 30 30 30 30 31 31 31 31 31 31 30 30 30 31 30 30 31 31 31 30 30 29
22 23 24 25 26 27 27 28 27 27 27 27 27 27 28 28 28 29 29 30 30 30 30 30 30 30 30 30 30 31 31 31 30 30 31 31 31 31 31 30 30 29 29
21 22 23 24 25 26 26 27 27 27 27 28 27 28 28 28 28 29 29 29 30 31 31 31 30 30 30 31 30 30 31 31 30 30 30 31 31 31 30 29 28 29 29
20 21 22 23 23 24 25 25 25 26 26 27 27 28 28 29 29 29 30 30 31 31 32 31 31 30 30 31 31 30 30 30 31 31 31 31 31 30 30 29 29 28 29
20 21 21 21 22 23 23 24 25 25 26 26 27 28 28 29 30 30 31 31 31 31 31 31 31 30 30 29 29 30 30 30 31 31 31 32 31 31 30 30 29 29 29
19 20 21 21 22 22 22 23 24 24 24 25 26 28 29 29 30 30 30 31 31 32 31 31 31 31 30 30 29 30 29 29 29 30 30 30 31 30 30 30 29 29 29
19 20 20 21 21 22 23 23 24 24 24 25 26 27 28 28 28 28 29 30 30 31 30 30 31 30 29 29 28 29 29 29 29 28 28 29 29 30 30 31 30 29 29
19 20 20 21 21 22 23 23 23 24 24 24 25 26 26 27 27 26 27 28 28 29 29 30 29 29 28 28 28 28 28 29 28 28 28 28 29 29 29 30 30 30 30
19 20 20 21 21 21 21 22 23 24 24 24 24 25 26 26 26 26 26 26 27 27 27 28 27 27 28 27 27 27 27 27 28 28 28 28 28 29 29 29 30 30 30
19 20 20 21 21 21 21 22 23 23 24 24 24 24 25 24 24 24 24 24 25 24 25 25 25 24 24 24 25 25 26 25 26 26 27 27 28 28 28 28 29 29 29
18 19 19 20 20 20 21 21 22 22 22 22 23 22 21 20 21 21 21 21 22 22 22 22 21 21 22 22 23 24 24 24 25 25 26 27 28 27 27 27 27 28 28
17 17 18 18 18 18 19 19 19 19 20 20 19 19 19 19 18 18 18 18 18 19 19 19 19 19 20 21 21 22 23 23 23 24 25 25 25 25 26 26 26 27 27
15 15 16 15 15 16 17 17 17 17 17 17 16 16 16 16 16 16 16 16 17 18 17 18 18 18 19 19 19 19 19 20 21 21 22 22 23 23 24 25 25 24 24
13 13 14 14 14 14 15 16 15 15 15 15 15 14 14 14 15 15 15 15 16 16 16 17 16 17 18 18 18 18 18 18 18 19 19 20 20 21 22 22 23 24 24
13 13 13 13 13 14 14 13 13 14 14 13 13 13 13 13 13 13 13 13 13 12 12 13 12 13 14 15 15 15 15 15 16 16 17 17 17 17 18 18 19 21 22
12 12 12 12 12 12 12 12 12 12 12 12 12 12 12 11 12 12 12 12 12 11 11 11 11 11 12 13 13 13 12 13 14 14 14 15 14 14 14 15 16 17 18
11 11 11 11 11 11 11 12 12 11 11 11 11 11 11 11 11 11 11 11 11 11 11 11 11 11 11 11 11 11 11 11 11 12 12 12 12 13 13 13 14 14 15
10 11 11 11 11 11 11 11 11 11 11 11 10 10 10 10 10 10 10 10 9 10 10 10 10 10 10 10 10 10 10 10 10 9 9 9 9 9 9 11 11 12 12
10 11 11 12 12 12 12 11 11 11 12 11 11 10 10 10 10 10 10 10 9 9 9 9 9 10 10 9 9 9 8 8 7 7 7 7 6 6 6 7 8 9 10
9 10 11 12 12 12 12 12 12 12 11 11 11 11 10 10 10 10 10 10 10 10 10 9 9 10 10 9 9 8 8 7 7 6 5 5 4 4 4 5 6 7 7
10 11 11 11 12 12 12 12 13 12 12 11 11 11 11 11 10 11 11 10 10 10 10 10 10 9 9 9 9 9 8 8 7 5 5 4 3 2 2 2 3 4 5
Wind_Direction
274 274 274 272 271 272 273 275 276 277 275 274 275 275 274 275 276 276 275 275 276 277 277 277 276 275 275 275 274 274 273 270 269 268 267 265 263 261 261 259 258 258 258
274 273 272 271 272 274 276 277 277 276 275 276 275 274 274 275 275 275 275 276 276 277 277 276 275 274 274 273 273 273 272 270 267 266 265 265 263 261 261 259 258 258 259
272 271 271 273 274 273 273 276 277 278 275 276 275 274 273 274 275 275 275 275 276 276 276 277 277 276 274 273 272 271 269 268 266 265 263 263 260 261 261 260 257 256 257
274 273 273 274 274 273 273 275 275 277 276 276 276 273 274 275 275 276 276 276 277 277 277 278 278 276 275 273 272 271 269 268 266 264 263 262 261 262 261 259 258 256 255
274 275 274 275 276 276 276 276 277 277 277 277 277 275 275 277 277 278 279 279 279 278 278 279 280 276 275 274 272 270 269 268 266 264 264 263 262 263 262 259 257 255 255
276 276 276 277 276 277 278 278 278 277 278 278 277 275 275 277 277 277 277 279 279 278 277 278 279 277 277 276 274 271 269 268 266 264 263 262 262 261 261 257 256 255 256
276 277 278 278 278 279 280 278 279 279 279 277 277 276 276 277 278 278 278 278 279 279 278 279 278 277 277 277 276 273 269 268 266 263 262 263 262 261 262 258 255 253 254
279 280 280 279 279 279 278 277 278 278 278 277 277 276 277 278 279 279 278 278 279 280 280 280 279 277 276 277 276 273 270 267 267 266 264 264 262 261 261 258 256 254 253
282 283 283 281 281 280 278 278 280 279 277 277 277 277 277 277 277 278 279 279 278 279 279 279 278 279 279 277 275 273 270 268 267 267 265 264 263 260 260 258 256 254 254
282 283 284 283 283 282 282 283 282 283 280 277 276 277 278 278 278 278 279 279 277 278 278 279 278 278 277 276 275 274 272 270 269 267 265 264 262 260 259 257 255 255 255
286 287 286 286 285 285 286 286 283 284 285 282 279 280 279 278 279 279 278 278 277 277 277 278 278 278 276 276 276 275 273 272 271 268 266 264 262 262 261 259 257 257 257
287 288 291 291 290 290 288 287 287 288 288 287 283 282 282 281 281 280 279 278 278 277 278 278 277 277 276 276 275 274 273 272 272 270 266 265 264 264 263 261 260 258 258
293 294 296 295 295 293 291 289 288 288 288 289 286 284 283 282 282 281 280 279 278 278 277 278 277 277 277 276 275 273 272 272 271 270 268 267 265 264 263 261 259 258 258
295 297 299 299 298 296 294 293 291 289 288 290 290 287 285 285 283 282 281 279 280 280 280 280 280 278 277 276 274 274 274 272 270 269 269 268 267 265 263 261 261 260 258
297 298 298 299 299 298 297 296 294 292 290 289 290 289 286 285 284 284 282 281 283 282 283 285 282 280 278 277 275 275 274 272 271 269 269 268 268 266 263 261 259 258 257
301 302 301 301 300 300 299 298 298 297 294 292 291 291 291 290 288 286 285 285 285 286 287 287 285 282 281 280 279 278 276 274 274 272 270 270 269 266 264 261 259 257 256
305 305 305 305 304 304 303 303 303 302 301 299 297 295 294 293 296 294 290 288 288 287 287 287 285 282 283 284 283 280 279 277 276 274 272 270 269 267 265 262 259 257 255
310 310 311 311 311 309 309 307 307 308 307 306 305 303 301 298 302 300 297 296 296 293 291 292 287 285 286 288 287 286 283 280 278 276 274 271 269 267 265 263 261 257 255
318 319 318 317 316 314 313 312 312 313 314 312 309 306 303 304 306 307 305 305 304 299 295 295 294 292 292 294 294 293 289 286 284 280 278 275 272 268 266 263 260 257 256
322 324 325 324 322 322 321 319 319 319 318 316 314 312 310 310 312 313 313 312 314 311 305 303 300 298 298 300 302 301 294 290 289 285 282 279 273 267 264 260 258 255 254
328 330 332 330 329 329 329 330 329 328 327 325 323 321 318 317 316 319 319 314 316 319 319 318 314 310 306 305 307 305 300 294 291 289 286 283 275 266 260 257 256 255 253
339 341 341 341 339 338 338 339 339 339 338 335 331 327 323 323 323 323 323 320 319 319 321 322 321 322 319 317 316 315 308 301 298 295 292 288 280 269 263 259 258 253 249
349 349 350 351 352 350 347 344 344 345 345 346 346 345 343 340 339 336 335 335 331 330 332 330 329 331 329 325 322 322 317 311 306 302 299 295 287 273 265 260 256 252 248
354 356 357 356 354 354 353 351 349 351 350 354 355 357 356 355 355 355 355 353 350 348 346 345 342 340 342 343 338 334 332 329 323 315 308 299 291 283 274 263 256 250 245
1 2 2 2 2 3 3 3 5 4 4 3 2 359 356 353 353 356 358 360 3 6 2 360 356 354 352 350 352 354 354 350 345 338 333 326 304 294 283 264 249 242 237
10 9 8 7 8 8 9 10 10 12 12 11 10 9 8 5 0 359 359 360 2 6 7 6 5 1 360 360 1 1 360 357 354 353 350 344 327 317 315 290 251 238 233
Height
5856 5855 5855 5854 5854 5853 5853 5852 5851 5850 5849 5848 5847 5846 5845 5844 5844 5843 5842 5840 5839 5838 5837 5836 5835 5833 5832 5832 5831 5830 5829 5828 5828 5827 5828 5828 5828 5829 5830 5830 5831 5832 5832
5851 5850 5849 5849 5848 5848 5847 5846 5845 5844 5843 5842 5840 5840 5839 5838 5837 5836 5835 5834 5833 5832 5830 5829 5828 5826 5825 5825 5824 5823 5822 5821 5821 5821 5821 5821 5823 5823 5823 5824 5824 5825 5826
5845 5844 5844 5843 5842 5842 5841 5840 5839 5838 5836 5835 5834 5833 5832 5831 5830 5829 5828 5827 5825 5824 5823 5822 5821 5819 5818 5817 5816 5815 5814 5814 5814 5814 5814 5815 5815 5816 5816 5817 5817 5818 5819
5839 5838 5838 5837 5836 5836 5835 5834 5833 5832 5830 5828 5827 5826 5825 5824 5823 5822 5821 5819 5818 5817 5816 5814 5813 5812 5810 5809 5808 5808 5807 5807 5807 5807 5807 5808 5808 5808 5809 5810 5810 5811 5812
5834 5833 5832 5831 5831 5830 5829 5827 5826 5825 5823 5821 5820 5819 5818 5817 5816 5814 5813 5812 5810 5809 5808 5806 5805 5804 5803 5802 5801 5800 5800 5800 5799 5800 5800 5800 5801 5801 5802 5802 5803 5804 5805
5828 5827 5826 5825 5825 5824 5823 5821 5819 5818 5816 5814 5813 5812 5811 5810 5809 5807 5806 5804 5803 5801 5800 5799 5797 5796 5795 5794 5793 5792 5792 5792 5792 5792 5792 5793 5793 5794 5794 5795 5795 5796 5798
5823 5822 5821 5820 5819 5818 5816 5814 5812 5810 5809 5807 5806 5805 5804 5803 5801 5800 5798 5797 5795 5794 5792 5791 5790 5788 5787 5786 5785 5784 5784 5784 5784 5784 5784 5785 5786 5786 5787 5787 5788 5789 5790
5818 5816 5815 5814 5812 5811 5809 5807 5805 5803 5802 5800 5799 5798 5797 5795 5794 5792 5791 5789 5787 5786 5784 5783 5782 5780 5779 5778 5777 5776 5776 5776 5776 5776 5776 5777 5777 5778 5779 5780 5781 5782 5783
5813 5811 5810 5808 5806 5804 5802 5800 5798 5796 5795 5793 5792 5791 5790 5788 5786 5784 5783 5781 5779 5778 5776 5775 5774 5772 5771 5770 5769 5768 5768 5767 5768 5768 5768 5769 5769 5770 5771 5772 5773 5775 5776
5808 5806 5804 5802 5800 5798 5796 5794 5792 5790 5788 5787 5785 5784 5782 5780 5778 5777 5775 5773 5771 5769 5768 5766 5765 5764 5763 5762 5761 5760 5760 5759 5759 5760 5760 5760 5761 5762 5763 5764 5765 5767 5768
5803 5801 5799 5797 5795 5793 5790 5788 5786 5784 5782 5780 5778 5776 5775 5773 5771 5769 5766 5764 5763 5761 5759 5758 5757 5756 5755 5754 5753 5752 5752 5751 5751 5751 5752 5752 5753 5754 5755 5756 5757 5758 5760
5798 5796 5794 5792 5790 5787 5785 5783 5780 5778 5776 5774 5772 5769 5767 5765 5763 5761 5759 5757 5755 5753 5751 5750 5748 5747 5746 5745 5745 5744 5744 5744 5743 5743 5743 5744 5744 5745 5746 5747 5749 5750 5752
5794 5791 5789 5786 5784 5781 5779 5776 5774 5772 5769 5767 5765 5762 5760 5758 5756 5754 5751 5749 5747 5745 5744 5742 5740 5739 5738 5737 5737 5736 5735 5735 5735 5735 5735 5736 5736 5737 5738 5739 5740 5742 5743
5789 5787 5784 5781 5778 5775 5773 5770 5768 5765 5763 5761 5758 5755 5753 5750 5748 5746 5744 5742 5740 5738 5736 5734 5732 5731 5730 5729 5729 5728 5728 5727 5727 5727 5728 5728 5728 5729 5729 5731 5732 5733 5735
5784 5781 5778 5775 5772 5770 5767 5764 5762 5759 5756 5754 5751 5748 5746 5744 5742 5739 5737 5735 5733 5731 5729 5727 5726 5724 5723 5722 5721 5721 5720 5720 5719 5719 5719 5720 5720 5720 5721 5722 5724 5725 5727
5779 5776 5773 5770 5767 5764 5761 5758 5756 5753 5750 5747 5744 5742 5740 5738 5735 5733 5731 5729 5727 5725 5723 5721 5719 5718 5717 5716 5715 5714 5714 5713 5712 5712 5711 5712 5712 5712 5713 5714 5715 5717 5718
5775 5771 5768 5765 5762 5759 5756 5753 5750 5747 5744 5741 5739 5736 5734 5732 5730 5728 5725 5723 5721 5719 5717 5716 5714 5712 5711 5710 5708 5707 5706 5705 5705 5704 5704 5704 5704 5705 5705 5706 5707 5709 5710
5770 5767 5764 5761 5758 5755 5752 5749 5746 5743 5740 5737 5735 5732 5730 5728 5726 5723 5721 5719 5717 5714 5712 5711 5709 5707 5706 5704 5703 5701 5700 5699 5698 5697 5697 5697 5697 5697 5698 5699 5700 5701 5703
5767 5764 5760 5757 5754 5751 5748 5745 5742 5740 5737 5734 5731 5729 5726 5724 5722 5719 5717 5714 5712 5710 5708 5706 5704 5702 5701 5699 5698 5696 5695 5694 5693 5692 5691 5690 5690 5690 5691 5691 5692 5694 5695
5764 5761 5757 5754 5751 5748 5745 5742 5739 5737 5734 5731 5728 5725 5723 5721 5719 5716 5714 5712 5709 5707 5705 5703 5700 5698 5697 5695 5693 5692 5690 5689 5688 5687 5686 5685 5684 5684 5684 5685 5685 5687 5688
5761 5758 5755 5752 5749 5746 5743 5740 5737 5734 5731 5728 5725 5723 5721 5718 5716 5713 5711 5709 5707 5705 5702 5700 5698 5696 5693 5692 5690 5688 5686 5685 5684 5682 5681 5680 5679 5679 5679 5679 5680 5681 5682
5759 5756 5753 5750 5746 5743 5741 5738 5735 5732 5729 5726 5723 5721 5718 5716 5713 5711 5709 5707 5705 5703 5700 5698 5696 5694 5691 5689 5687 5686 5684 5682 5681 5679 5678 5676 5675 5675 5675 5675 5676 5676 5677
5757 5754 5751 5748 5745 5742 5739 5736 5733 5731 5728 5725 5722 5720 5717 5715 5712 5710 5707 5705 5703 5701 5699 5697 5695 5692 5690 5688 5686 5684 5681 5680 5678 5677 5675 5674 5673 5672 5671 5672 5672 5673 5674
5757 5754 5751 5748 5745 5741 5738 5735 5732 5730 5727 5724 5721 5719 5717 5714 5712 5709 5707 5704 5702 5700 5698 5696 5694 5691 5689 5687 5684 5682 5680 5678 5677 5675 5674 5672 5671 5670 5670 5669 5670 5670 5670
5756 5753 5750 5747 5744 5741 5738 5735 5732 5729 5726 5724 5721 5719 5716 5714 5711 5709 5707 5704 5702 5700 5698 5696 5693 5691 5689 5686 5684 5682 5680 5678 5676 5674 5673 5671 5670 5669 5669 5668 5668 5668 5669
5756 5753 5750 5747 5744 5741 5738 5735 5732 5730 5727 5724 5722 5719 5716 5713 5711 5709 5706 5704 5702 5700 5698 5695 5693 5691 5689 5686 5684 5682 5680 5678 5676 5674 5673 5671 5670 5669 5668 5668 5667 5667 5667